Time,TemperatureF,DewpointF,PressureIn,WindDirection,WindDirectionDegrees,WindSpeedMPH,WindSpeedGustMPH,Humidity,HourlyPrecipIn,Conditions,Clouds,dailyrainin,SoftwareType,DateUTC
2013-03-19 00:00:00,36.5,35.4,29.91,WSW,257,0.0,3.0,96,0.02,,,0.34,meteohub,2013-03-19 04:00:00,
2013-03-19 00:05:00,36.5,35.4,29.90,WSW,257,1.0,2.0,96,0.02,,,0.00,meteohub,2013-03-19 04:05:00,
2013-03-19 00:10:00,36.5,35.4,29.91,WSW,257,1.0,2.0,96,0.01,,,0.00,meteohub,2013-03-19 04:10:00,
2013-03-19 00:15:00,36.5,35.4,29.91,WSW,257,1.0,2.0,96,0.01,,,0.00,meteohub,2013-03-19 04:15:00,
2013-03-19 00:20:00,36.5,35.4,29.91,WNW,302,1.0,4.0,96,0.01,,,0.00,meteohub,2013-03-19 04:20:00,
2013-03-19 00:25:00,36.5,35.4,29.92,WNW,290,2.0,4.0,96,0.00,,,0.00,meteohub,2013-03-19 04:25:00,
2013-03-19 00:30:00,36.5,35.4,29.92,West,269,0.0,4.0,96,0.00,,,0.00,meteohub,2013-03-19 04:30:00,
2013-03-19 00:35:00,36.5,35.4,29.91,West,277,0.0,4.0,96,0.00,,,0.00,meteohub,2013-03-19 04:35:00,
2013-03-19 00:40:00,36.3,35.2,29.92,NW,319,1.0,3.0,96,0.00,,,0.00,meteohub,2013-03-19 04:40:00,
2013-03-19 00:45:00,36.3,35.2,29.91,NW,313,0.0,3.0,96,0.00,,,0.00,meteohub,2013-03-19 04:45:00,
2013-03-19 00:50:00,36.3,35.2,29.90,NW,313,0.0,3.0,96,0.00,,,0.00,meteohub,2013-03-19 04:50:00,
2013-03-19 00:55:00,36.3,35.2,29.90,NW,313,0.0,2.0,96,0.00,,,0.00,meteohub,2013-03-19 04:55:00,
2013-03-19 01:00:00,36.3,35.2,29.90,NW,313,0.0,1.0,96,0.00,,,0.00,meteohub,2013-03-19 05:00:00,
2013-03-19 01:05:00,36.3,35.2,29.90,NW,313,0.0,1.0,96,0.00,,,0.00,meteohub,2013-03-19 05:05:00,
2013-03-19 01:10:00,36.3,35.2,29.89,NW,313,0.0,1.0,96,0.00,,,0.00,meteohub,2013-03-19 05:10:00,
2013-03-19 01:15:00,36.3,35.2,29.88,NW,314,0.0,2.0,96,0.00,,,0.00,meteohub,2013-03-19 05:15:00,
2013-03-19 01:20:00,36.3,35.2,29.88,NW,314,0.0,2.0,96,0.00,,,0.00,meteohub,2013-03-19 05:20:00,
2013-03-19 01:25:00,36.3,35.2,29.87,NW,314,0.0,2.0,96,0.00,,,0.00,meteohub,2013-03-19 05:25:00,
2013-03-19 01:30:00,36.3,35.2,29.88,NW,314,0.0,1.0,96,0.00,,,0.00,meteohub,2013-03-19 05:30:00,
2013-03-19 01:35:00,36.3,35.2,29.87,NW,314,0.0,1.0,96,0.00,,,0.00,meteohub,2013-03-19 05:35:00,
2013-03-19 01:40:00,36.3,35.2,29.87,NW,314,1.0,0.0,96,0.00,,,0.00,meteohub,2013-03-19 05:40:00,
2013-03-19 01:45:00,36.5,35.4,29.87,NW,314,0.0,2.0,96,0.00,,,0.00,meteohub,2013-03-19 05:45:00,
2013-03-19 01:50:00,36.5,35.4,29.88,WNW,294,2.0,2.0,96,0.00,,,0.00,meteohub,2013-03-19 05:50:00,
2013-03-19 01:55:00,36.5,35.4,29.88,WNW,293,0.0,2.0,96,0.00,,,0.00,meteohub,2013-03-19 05:55:00,
2013-03-19 02:00:00,36.3,35.2,29.87,WNW,293,1.0,2.0,96,0.00,,,0.00,meteohub,2013-03-19 06:00:00,
2013-03-19 02:05:00,36.3,35.2,29.86,WNW,293,0.0,2.0,96,0.00,,,0.00,meteohub,2013-03-19 06:05:00,
2013-03-19 02:10:00,36.3,35.2,29.86,WNW,293,0.0,2.0,96,0.00,,,0.00,meteohub,2013-03-19 06:10:00,
2013-03-19 02:15:00,36.3,35.2,29.86,WNW,293,0.0,1.0,96,0.00,,,0.00,meteohub,2013-03-19 06:15:00,
2013-03-19 02:20:00,36.3,35.2,29.86,WNW,293,0.0,0.0,96,0.00,,,0.00,meteohub,2013-03-19 06:20:00,
2013-03-19 02:25:00,36.3,35.2,29.86,WNW,293,0.0,0.0,96,0.00,,,0.00,meteohub,2013-03-19 06:25:00,
2013-03-19 02:31:00,36.3,35.2,29.85,WNW,293,0.0,0.0,96,0.00,,,0.00,meteohub,2013-03-19 06:31:00,
2013-03-19 02:36:00,36.3,35.2,29.85,WNW,293,0.0,0.0,96,0.00,,,0.00,meteohub,2013-03-19 06:36:00,
2013-03-19 02:41:00,36.3,35.2,29.85,WNW,293,0.0,0.0,96,0.00,,,0.00,meteohub,2013-03-19 06:41:00,
2013-03-19 02:46:00,36.5,35.4,29.85,WNW,293,0.0,1.0,96,0.00,,,0.00,meteohub,2013-03-19 06:46:00,
2013-03-19 02:51:00,36.7,35.6,29.85,WNW,293,0.0,1.0,96,0.00,,,0.00,meteohub,2013-03-19 06:51:00,
2013-03-19 02:56:00,36.7,35.6,29.84,WNW,293,0.0,1.0,96,0.00,,,0.00,meteohub,2013-03-19 06:56:00,
2013-03-19 03:01:00,36.7,35.6,29.84,WNW,293,0.0,1.0,96,0.00,,,0.00,meteohub,2013-03-19 07:01:00,
2013-03-19 03:06:00,36.7,35.6,29.84,WNW,293,1.0,1.0,96,0.00,,,0.00,meteohub,2013-03-19 07:06:00,
2013-03-19 03:11:00,36.7,35.6,29.84,WNW,293,0.0,2.0,96,0.00,,,0.00,meteohub,2013-03-19 07:11:00,
2013-03-19 03:16:00,36.7,35.6,29.84,WNW,293,0.0,2.0,96,0.00,,,0.00,meteohub,2013-03-19 07:16:00,
2013-03-19 03:21:00,36.7,35.6,29.84,WNW,293,0.0,2.0,96,0.00,,,0.00,meteohub,2013-03-19 07:21:00,
2013-03-19 03:26:00,36.7,35.6,29.84,WNW,293,0.0,2.0,96,0.00,,,0.00,meteohub,2013-03-19 07:26:00,
2013-03-19 03:32:00,36.7,35.6,29.83,WNW,286,0.0,2.0,96,0.00,,,0.00,meteohub,2013-03-19 07:32:00,
2013-03-19 03:37:00,36.7,35.6,29.83,WNW,286,0.0,2.0,96,0.00,,,0.00,meteohub,2013-03-19 07:37:00,
2013-03-19 03:42:00,36.7,35.6,29.83,WNW,286,0.0,2.0,96,0.00,,,0.00,meteohub,2013-03-19 07:42:00,
2013-03-19 03:47:00,36.7,35.6,29.83,WNW,286,1.0,1.0,96,0.00,,,0.00,meteohub,2013-03-19 07:47:00,
2013-03-19 03:52:00,36.7,35.6,29.83,WNW,286,0.0,2.0,96,0.00,,,0.00,meteohub,2013-03-19 07:52:00,
2013-03-19 03:57:00,36.7,35.6,29.83,WNW,286,1.0,2.0,96,0.00,,,0.00,meteohub,2013-03-19 07:57:00,
2013-03-19 04:02:00,36.7,35.6,29.82,WNW,286,0.0,2.0,96,0.00,,,0.00,meteohub,2013-03-19 08:02:00,
2013-03-19 04:07:00,36.5,35.4,29.81,WNW,286,0.0,2.0,96,0.00,,,0.00,meteohub,2013-03-19 08:07:00,
2013-03-19 04:12:00,36.5,35.4,29.81,WNW,286,0.0,2.0,96,0.00,,,0.00,meteohub,2013-03-19 08:12:00,
2013-03-19 04:17:00,36.5,35.4,29.81,WNW,286,0.0,2.0,96,0.00,,,0.00,meteohub,2013-03-19 08:17:00,
2013-03-19 04:22:00,36.5,35.4,29.81,WNW,286,0.0,1.0,96,0.00,,,0.00,meteohub,2013-03-19 08:22:00,
2013-03-19 04:27:00,36.3,35.2,29.81,WNW,286,0.0,1.0,96,0.00,,,0.00,meteohub,2013-03-19 08:27:00,
2013-03-19 04:32:00,36.3,35.2,29.81,WNW,286,0.0,0.0,96,0.00,,,0.00,meteohub,2013-03-19 08:32:00,
2013-03-19 04:37:00,36.3,35.2,29.81,WNW,286,0.0,0.0,96,0.00,,,0.00,meteohub,2013-03-19 08:37:00,
2013-03-19 04:43:00,36.3,35.2,29.80,WNW,286,0.0,1.0,96,0.00,,,0.00,meteohub,2013-03-19 08:43:00,
2013-03-19 04:48:00,36.3,35.2,29.80,WNW,286,0.0,1.0,96,0.00,,,0.00,meteohub,2013-03-19 08:48:00,
2013-03-19 04:53:00,36.3,35.2,29.80,WNW,286,0.0,1.0,96,0.00,,,0.00,meteohub,2013-03-19 08:53:00,
2013-03-19 04:58:00,36.5,35.8,29.80,WNW,286,0.0,0.0,97,0.00,,,0.00,meteohub,2013-03-19 08:58:00,
2013-03-19 05:03:00,36.5,35.8,29.80,WNW,286,0.0,2.0,97,0.00,,,0.00,meteohub,2013-03-19 09:03:00,
2013-03-19 05:08:00,36.5,35.8,29.80,WNW,287,0.0,2.0,97,0.00,,,0.00,meteohub,2013-03-19 09:08:00,
2013-03-19 05:13:00,36.5,35.8,29.80,WNW,287,1.0,2.0,97,0.00,,,0.00,meteohub,2013-03-19 09:13:00,
2013-03-19 05:18:00,36.5,35.8,29.80,WNW,287,0.0,2.0,97,0.00,,,0.00,meteohub,2013-03-19 09:18:00,
2013-03-19 05:23:00,36.5,35.8,29.79,WNW,287,0.0,2.0,97,0.00,,,0.00,meteohub,2013-03-19 09:23:00,
2013-03-19 05:28:00,36.3,35.6,29.80,WNW,287,0.0,2.0,97,0.00,,,0.00,meteohub,2013-03-19 09:28:00,
2013-03-19 05:33:00,36.3,35.6,29.79,WNW,287,1.0,2.0,97,0.00,,,0.00,meteohub,2013-03-19 09:33:00,
2013-03-19 05:38:00,36.3,35.6,29.79,WNW,287,0.0,2.0,97,0.00,,,0.00,meteohub,2013-03-19 09:38:00,
2013-03-19 05:43:00,36.3,35.2,29.79,WNW,287,0.0,2.0,96,0.00,,,0.00,meteohub,2013-03-19 09:43:00,
2013-03-19 05:48:00,36.3,35.2,29.79,WNW,287,0.0,2.0,96,0.00,,,0.00,meteohub,2013-03-19 09:48:00,
2013-03-19 05:53:00,36.3,35.2,29.79,WNW,287,0.0,1.0,96,0.00,,,0.00,meteohub,2013-03-19 09:53:00,
2013-03-19 05:58:00,36.1,35.1,29.79,WNW,287,1.0,1.0,96,0.00,,,0.00,meteohub,2013-03-19 09:58:00,
2013-03-19 06:03:00,36.1,35.1,29.79,WNW,286,2.0,2.0,96,0.00,,,0.00,meteohub,2013-03-19 10:03:00,
2013-03-19 06:08:00,36.1,35.1,29.79,WNW,287,1.0,2.0,96,0.00,,,0.00,meteohub,2013-03-19 10:08:00,
2013-03-19 06:13:00,36.1,35.1,29.79,WNW,286,0.0,2.0,96,0.00,,,0.00,meteohub,2013-03-19 10:13:00,
2013-03-19 06:18:00,36.1,35.1,29.79,WNW,287,0.0,2.0,96,0.00,,,0.00,meteohub,2013-03-19 10:18:00,
2013-03-19 06:23:00,36.1,35.1,29.80,WNW,287,0.0,1.0,96,0.00,,,0.00,meteohub,2013-03-19 10:23:00,
2013-03-19 06:28:00,36.1,35.1,29.79,WNW,287,0.0,1.0,96,0.00,,,0.00,meteohub,2013-03-19 10:28:00,
2013-03-19 06:33:00,36.1,35.4,29.79,WNW,287,0.0,1.0,97,0.00,,,0.00,meteohub,2013-03-19 10:33:00,
2013-03-19 06:38:00,36.1,35.4,29.79,WNW,287,0.0,0.0,97,0.00,,,0.00,meteohub,2013-03-19 10:38:00,
2013-03-19 06:43:00,36.1,35.4,29.79,WNW,286,0.0,0.0,97,0.00,,,0.00,meteohub,2013-03-19 10:43:00,
2013-03-19 06:48:00,36.1,35.4,29.81,WNW,287,0.0,0.0,97,0.00,,,0.00,meteohub,2013-03-19 10:48:00,
2013-03-19 06:53:00,36.1,35.4,29.81,WNW,287,0.0,2.0,97,0.00,,,0.00,meteohub,2013-03-19 10:53:00,
2013-03-19 06:58:00,36.1,35.4,29.81,WNW,287,0.0,2.0,97,0.00,,,0.00,meteohub,2013-03-19 10:58:00,
2013-03-19 07:03:00,36.1,35.4,29.81,WNW,287,1.0,2.0,97,0.00,,,0.00,meteohub,2013-03-19 11:03:00,
2013-03-19 07:08:00,36.1,35.4,29.82,WNW,287,2.0,2.0,97,0.00,,,0.00,meteohub,2013-03-19 11:08:00,
2013-03-19 07:13:00,36.0,35.2,29.82,WNW,283,1.0,2.0,97,0.00,,,0.00,meteohub,2013-03-19 11:13:00,
2013-03-19 07:18:00,36.0,35.2,29.82,NW,320,1.0,2.0,97,0.00,,,0.00,meteohub,2013-03-19 11:18:00,
2013-03-19 07:23:00,35.8,34.7,29.81,NW,315,1.0,3.0,96,0.00,,,0.00,meteohub,2013-03-19 11:23:00,
2013-03-19 07:28:00,35.8,34.7,29.82,NW,315,0.0,3.0,96,0.00,,,0.00,meteohub,2013-03-19 11:28:00,
2013-03-19 07:33:00,35.8,34.7,29.82,NW,314,0.0,3.0,96,0.00,,,0.00,meteohub,2013-03-19 11:33:00,
2013-03-19 07:38:00,35.8,34.7,29.82,WNW,284,0.0,3.0,96,0.00,,,0.00,meteohub,2013-03-19 11:38:00,
2013-03-19 07:43:00,35.8,34.7,29.82,WNW,284,0.0,2.0,96,0.00,,,0.00,meteohub,2013-03-19 11:43:00,
2013-03-19 07:48:00,35.8,34.7,29.83,West,281,0.0,2.0,96,0.00,,,0.00,meteohub,2013-03-19 11:48:00,
2013-03-19 07:53:00,35.8,34.7,29.84,WNW,298,2.0,3.0,96,0.00,,,0.00,meteohub,2013-03-19 11:53:00,
2013-03-19 07:58:00,35.8,34.7,29.84,NNW,334,2.0,3.0,96,0.00,,,0.00,meteohub,2013-03-19 11:58:00,
2013-03-19 08:03:00,35.8,34.7,29.85,NNW,330,1.0,3.0,96,0.00,,,0.00,meteohub,2013-03-19 12:03:00,
2013-03-19 08:09:00,35.8,34.7,29.85,West,278,1.0,3.0,96,0.00,,,0.00,meteohub,2013-03-19 12:09:00,
2013-03-19 08:14:00,35.8,35.1,29.84,NNW,339,2.0,4.0,97,0.00,,,0.00,meteohub,2013-03-19 12:14:00,
2013-03-19 08:19:00,35.6,34.5,29.84,North,5,2.0,5.0,96,0.00,,,0.00,meteohub,2013-03-19 12:19:00,
2013-03-19 08:24:00,35.6,34.9,29.84,West,271,0.0,6.0,97,0.00,,,0.00,meteohub,2013-03-19 12:24:00,
2013-03-19 08:29:00,35.6,34.9,29.84,West,271,0.0,6.0,97,0.00,,,0.00,meteohub,2013-03-19 12:29:00,
2013-03-19 08:34:00,35.6,34.9,29.84,West,271,0.0,3.0,97,0.00,,,0.00,meteohub,2013-03-19 12:34:00,
2013-03-19 08:39:00,35.8,35.1,29.84,West,271,0.0,3.0,97,0.00,,,0.00,meteohub,2013-03-19 12:39:00,
2013-03-19 08:44:00,35.8,35.1,29.84,West,270,1.0,2.0,97,0.00,,,0.00,meteohub,2013-03-19 12:44:00,
2013-03-19 08:49:00,36.0,35.2,29.84,West,274,0.0,2.0,97,0.00,,,0.00,meteohub,2013-03-19 12:49:00,
2013-03-19 08:54:00,36.0,35.2,29.84,NW,307,0.0,3.0,97,0.00,,,0.00,meteohub,2013-03-19 12:54:00,
2013-03-19 08:59:00,35.8,35.1,29.84,NW,307,0.0,3.0,97,0.00,,,0.00,meteohub,2013-03-19 12:59:00,
2013-03-19 09:04:00,36.0,35.2,29.84,WNW,301,2.0,3.0,97,0.00,,,0.00,meteohub,2013-03-19 13:04:00,
2013-03-19 09:09:00,36.1,35.4,29.84,WNW,301,0.0,2.0,97,0.00,,,0.00,meteohub,2013-03-19 13:09:00,
2013-03-19 09:14:00,36.3,35.6,29.85,WNW,301,2.0,3.0,97,0.00,,,0.00,meteohub,2013-03-19 13:14:00,
2013-03-19 09:19:00,36.7,36.0,29.85,WSW,249,1.0,3.0,97,0.00,,,0.00,meteohub,2013-03-19 13:19:00,
2013-03-19 09:24:00,37.0,36.3,29.85,NW,309,2.0,3.0,97,0.00,,,0.00,meteohub,2013-03-19 13:24:00,
2013-03-19 09:29:00,37.0,36.3,29.85,West,275,2.0,3.0,97,0.00,,,0.00,meteohub,2013-03-19 13:29:00,
2013-03-19 09:34:00,37.2,36.5,29.84,NW,319,2.0,4.0,97,0.00,,,0.00,meteohub,2013-03-19 13:34:00,
2013-03-19 09:39:00,37.6,36.9,29.84,NNW,348,2.0,4.0,97,0.00,,,0.00,meteohub,2013-03-19 13:39:00,
2013-03-19 09:44:00,37.9,37.2,29.84,WNW,298,0.0,4.0,97,0.00,,,0.00,meteohub,2013-03-19 13:44:00,
2013-03-19 09:49:00,38.5,37.8,29.84,WNW,302,3.0,7.0,97,0.00,,,0.00,meteohub,2013-03-19 13:49:00,
2013-03-19 09:54:00,38.5,37.8,29.84,NW,313,1.0,7.0,97,0.00,,,0.00,meteohub,2013-03-19 13:54:00,
2013-03-19 09:59:00,39.4,38.7,29.84,NW,324,2.0,5.0,97,0.00,,,0.00,meteohub,2013-03-19 13:59:00,
2013-03-19 10:04:00,39.7,39.0,29.84,NW,309,3.0,5.0,97,0.00,,,0.00,meteohub,2013-03-19 14:04:00,
2013-03-19 10:09:00,39.6,38.8,29.84,West,281,0.0,5.0,97,0.00,,,0.00,meteohub,2013-03-19 14:09:00,
2013-03-19 10:14:00,39.9,39.2,29.83,West,274,0.0,7.0,97,0.00,,,0.00,meteohub,2013-03-19 14:14:00,
2013-03-19 10:19:00,40.5,39.7,29.83,NNW,330,0.0,7.0,97,0.00,,,0.00,meteohub,2013-03-19 14:19:00,
2013-03-19 10:24:00,41.4,40.6,29.83,NNW,340,4.0,5.0,97,0.00,,,0.00,meteohub,2013-03-19 14:24:00,
2013-03-19 10:29:00,42.1,41.4,29.84,NW,313,3.0,7.0,97,0.00,,,0.00,meteohub,2013-03-19 14:29:00,
2013-03-19 10:34:00,42.6,41.0,29.83,WNW,288,4.0,7.0,94,0.00,,,0.00,meteohub,2013-03-19 14:34:00,
2013-03-19 10:39:00,43.2,41.0,29.83,NNW,333,3.0,6.0,92,0.00,,,0.00,meteohub,2013-03-19 14:39:00,
2013-03-19 10:44:00,43.9,41.4,29.83,NW,310,3.0,8.0,91,0.00,,,0.00,meteohub,2013-03-19 14:44:00,
2013-03-19 10:49:00,44.2,41.2,29.83,WNW,290,2.0,8.0,89,0.00,,,0.00,meteohub,2013-03-19 14:49:00,
2013-03-19 10:54:00,45.1,41.7,29.83,NW,306,4.0,8.0,88,0.00,,,0.00,meteohub,2013-03-19 14:54:00,
2013-03-19 10:59:00,45.7,40.8,29.83,NW,317,2.0,8.0,83,0.00,,,0.00,meteohub,2013-03-19 14:59:00,
2013-03-19 11:04:00,45.9,41.0,29.83,NW,304,1.0,8.0,83,0.00,,,0.00,meteohub,2013-03-19 15:04:00,
2013-03-19 11:09:00,46.2,41.0,29.83,NNW,346,2.0,9.0,82,0.00,,,0.00,meteohub,2013-03-19 15:09:00,
2013-03-19 11:14:00,46.8,41.9,29.83,WSW,248,2.0,9.0,83,0.00,,,0.00,meteohub,2013-03-19 15:14:00,
2013-03-19 11:19:00,47.5,41.5,29.83,NW,322,4.0,7.0,80,0.00,,,0.00,meteohub,2013-03-19 15:19:00,
2013-03-19 11:24:00,47.7,41.5,29.83,NW,309,3.0,7.0,79,0.00,,,0.00,meteohub,2013-03-19 15:24:00,
2013-03-19 11:29:00,47.7,41.2,29.83,NNE,14,1.0,5.0,78,0.00,,,0.00,meteohub,2013-03-19 15:29:00,
2013-03-19 11:34:00,48.2,41.7,29.83,NNW,329,0.0,8.0,78,0.00,,,0.00,meteohub,2013-03-19 15:34:00,
2013-03-19 11:40:00,48.7,42.4,29.82,NW,325,1.0,8.0,79,0.00,,,0.00,meteohub,2013-03-19 15:40:00,
2013-03-19 11:45:00,49.1,40.5,29.82,NNW,331,2.0,8.0,72,0.00,,,0.00,meteohub,2013-03-19 15:45:00,
2013-03-19 11:49:00,49.3,39.9,29.82,WNW,303,2.0,7.0,70,0.00,,,0.00,meteohub,2013-03-19 15:49:00,
2013-03-19 11:54:00,49.6,40.3,29.81,NNW,331,4.0,7.0,70,0.00,,,0.00,meteohub,2013-03-19 15:54:00,
2013-03-19 12:00:00,50.4,40.6,29.81,NW,315,3.0,7.0,69,0.00,,,0.00,meteohub,2013-03-19 16:00:00,
2013-03-19 12:05:00,50.9,41.2,29.81,WNW,286,2.0,7.0,69,0.00,,,0.00,meteohub,2013-03-19 16:05:00,
2013-03-19 12:10:00,51.4,41.2,29.81,NW,311,3.0,7.0,68,0.00,,,0.00,meteohub,2013-03-19 16:10:00,
2013-03-19 12:15:00,51.6,41.4,29.80,NW,319,2.0,6.0,68,0.00,,,0.00,meteohub,2013-03-19 16:15:00,
2013-03-19 12:20:00,51.8,40.1,29.80,NNW,327,3.0,6.0,64,0.00,,,0.00,meteohub,2013-03-19 16:20:00,
2013-03-19 12:25:00,52.0,40.1,29.80,NW,324,1.0,6.0,64,0.00,,,0.00,meteohub,2013-03-19 16:25:00,
2013-03-19 12:30:00,52.5,39.9,29.79,North,0,1.0,6.0,62,0.00,,,0.00,meteohub,2013-03-19 16:30:00,
2013-03-19 12:35:00,53.1,41.5,29.79,West,274,3.0,6.0,65,0.00,,,0.00,meteohub,2013-03-19 16:35:00,
2013-03-19 12:40:00,53.8,40.6,29.79,NNW,334,6.0,6.0,61,0.00,,,0.01,meteohub,2013-03-19 16:40:00,
2013-03-19 12:45:00,53.8,41.0,29.79,NW,315,3.0,5.0,62,0.01,,,0.01,meteohub,2013-03-19 16:45:00,
2013-03-19 12:50:00,54.0,40.5,29.79,NNW,329,5.0,7.0,60,0.01,,,0.01,meteohub,2013-03-19 16:50:00,
2013-03-19 12:55:00,53.2,38.8,29.79,NNW,335,0.0,9.0,58,0.01,,,0.01,meteohub,2013-03-19 16:55:00,
2013-03-19 13:00:00,53.1,39.2,29.79,NNW,338,6.0,9.0,59,0.01,,,0.01,meteohub,2013-03-19 17:00:00,
2013-03-19 13:05:00,53.4,39.4,29.79,West,267,4.0,9.0,59,0.01,,,0.01,meteohub,2013-03-19 17:05:00,
2013-03-19 13:10:00,54.0,39.6,29.79,NNW,331,1.0,9.0,58,0.01,,,0.01,meteohub,2013-03-19 17:10:00,
2013-03-19 13:15:00,54.0,37.2,29.80,SW,231,1.0,8.0,53,0.01,,,0.01,meteohub,2013-03-19 17:15:00,
2013-03-19 13:20:00,54.3,39.4,29.79,NW,316,3.0,8.0,57,0.01,,,0.01,meteohub,2013-03-19 17:20:00,
2013-03-19 13:25:00,54.3,38.5,29.79,NW,311,1.0,8.0,55,0.01,,,0.01,meteohub,2013-03-19 17:25:00,
2013-03-19 13:30:00,54.3,39.4,29.79,WSW,252,8.0,11.0,57,0.01,,,0.01,meteohub,2013-03-19 17:30:00,
2013-03-19 13:35:00,55.0,39.6,29.79,NNW,342,1.0,11.0,56,0.00,,,0.01,meteohub,2013-03-19 17:35:00,
2013-03-19 13:40:00,55.8,38.8,29.79,NW,317,3.0,8.0,53,0.00,,,0.01,meteohub,2013-03-19 17:40:00,
2013-03-19 13:45:00,55.6,38.3,29.78,North,349,2.0,8.0,52,0.00,,,0.01,meteohub,2013-03-19 17:45:00,
2013-03-19 13:50:00,55.2,38.3,29.78,WSW,249,2.0,7.0,53,0.00,,,0.01,meteohub,2013-03-19 17:50:00,
2013-03-19 13:55:00,55.4,38.1,29.78,WSW,245,0.0,7.0,52,0.00,,,0.01,meteohub,2013-03-19 17:55:00,
2013-03-19 14:00:00,55.6,38.3,29.77,WNW,297,1.0,10.0,52,0.00,,,0.01,meteohub,2013-03-19 18:00:00,
2013-03-19 14:05:00,55.9,39.0,29.77,NNW,328,3.0,10.0,53,0.00,,,0.01,meteohub,2013-03-19 18:05:00,
2013-03-19 14:10:00,56.1,37.2,29.76,NNW,345,3.0,10.0,49,0.00,,,0.01,meteohub,2013-03-19 18:10:00,
2013-03-19 14:15:00,56.8,38.5,29.76,NNW,329,2.0,6.0,50,0.00,,,0.01,meteohub,2013-03-19 18:15:00,
2013-03-19 14:20:00,56.7,37.8,29.76,West,280,2.0,8.0,49,0.00,,,0.01,meteohub,2013-03-19 18:20:00,
2013-03-19 14:25:00,56.8,37.4,29.76,North,5,6.0,8.0,48,0.00,,,0.01,meteohub,2013-03-19 18:25:00,
2013-03-19 14:30:00,57.4,37.9,29.75,NNW,336,4.0,8.0,48,0.00,,,0.01,meteohub,2013-03-19 18:30:00,
2013-03-19 14:35:00,57.7,38.7,29.75,SSW,192,4.0,8.0,49,0.00,,,0.01,meteohub,2013-03-19 18:35:00,
2013-03-19 14:40:00,58.3,38.1,29.75,NW,312,1.0,7.0,47,0.00,,,0.01,meteohub,2013-03-19 18:40:00,
2013-03-19 14:45:00,58.3,38.1,29.75,North,10,4.0,8.0,47,0.00,,,0.01,meteohub,2013-03-19 18:45:00,
2013-03-19 14:50:00,58.1,37.9,29.75,NNW,344,1.0,10.0,47,0.00,,,0.01,meteohub,2013-03-19 18:50:00,
2013-03-19 14:55:00,58.1,37.9,29.75,WNW,302,4.0,10.0,47,0.00,,,0.01,meteohub,2013-03-19 18:55:00,
2013-03-19 15:00:00,58.1,38.5,29.74,SSE,168,1.0,10.0,48,0.00,,,0.01,meteohub,2013-03-19 19:00:00,
2013-03-19 15:06:00,58.3,39.2,29.74,NNW,341,3.0,8.0,49,0.00,,,0.01,meteohub,2013-03-19 19:06:00,
2013-03-19 15:11:00,58.6,40.1,29.74,NW,309,1.0,6.0,50,0.00,,,0.01,meteohub,2013-03-19 19:11:00,
2013-03-19 15:16:00,57.9,38.3,29.74,WNW,299,1.0,7.0,48,0.00,,,0.01,meteohub,2013-03-19 19:16:00,
2013-03-19 15:21:00,57.4,38.8,29.74,NW,320,3.0,7.0,50,0.00,,,0.01,meteohub,2013-03-19 19:21:00,
2013-03-19 15:26:00,56.8,38.8,29.73,West,273,1.0,7.0,51,0.00,,,0.01,meteohub,2013-03-19 19:26:00,
2013-03-19 15:31:00,56.7,37.2,29.73,NW,309,4.0,7.0,48,0.00,,,0.01,meteohub,2013-03-19 19:31:00,
2013-03-19 15:36:00,57.2,39.7,29.73,NNW,340,4.0,9.0,52,0.00,,,0.01,meteohub,2013-03-19 19:36:00,
2013-03-19 15:41:00,57.6,39.6,29.73,NNW,341,2.0,9.0,51,0.00,,,0.01,meteohub,2013-03-19 19:41:00,
2013-03-19 15:46:00,57.9,38.8,29.73,NW,319,2.0,9.0,49,0.00,,,0.01,meteohub,2013-03-19 19:46:00,
2013-03-19 15:51:00,58.3,40.3,29.73,SSW,203,3.0,7.0,51,0.00,,,0.01,meteohub,2013-03-19 19:51:00,
2013-03-19 15:56:00,58.6,39.6,29.73,WNW,297,4.0,7.0,49,0.00,,,0.01,meteohub,2013-03-19 19:56:00,
2013-03-19 16:01:00,59.2,40.1,29.73,West,275,1.0,8.0,49,0.00,,,0.01,meteohub,2013-03-19 20:01:00,
2013-03-19 16:06:00,59.5,40.3,29.73,SE,144,2.0,9.0,49,0.00,,,0.01,meteohub,2013-03-19 20:06:00,
2013-03-19 16:12:00,60.1,42.4,29.74,NE,54,1.0,9.0,52,0.00,,,0.01,meteohub,2013-03-19 20:12:00,
2013-03-19 16:17:00,59.9,38.5,29.74,NW,304,1.0,8.0,45,0.00,,,0.01,meteohub,2013-03-19 20:17:00,
2013-03-19 16:22:00,59.7,39.4,29.74,WSW,238,2.0,12.0,47,0.00,,,0.01,meteohub,2013-03-19 20:22:00,
2013-03-19 16:27:00,60.1,38.7,29.74,NNW,330,3.0,12.0,45,0.00,,,0.01,meteohub,2013-03-19 20:27:00,
2013-03-19 16:32:00,59.0,37.8,29.74,NW,319,1.0,12.0,45,0.00,,,0.01,meteohub,2013-03-19 20:32:00,
2013-03-19 16:37:00,58.6,37.9,29.73,NW,315,3.0,9.0,46,0.00,,,0.01,meteohub,2013-03-19 20:37:00,
2013-03-19 16:42:00,58.3,36.5,29.74,WNW,287,4.0,7.0,44,0.00,,,0.01,meteohub,2013-03-19 20:42:00,
2013-03-19 16:47:00,57.7,36.5,29.74,NNW,331,6.0,8.0,45,0.00,,,0.01,meteohub,2013-03-19 20:47:00,
2013-03-19 16:52:00,57.0,35.2,29.74,NW,309,2.0,9.0,44,0.00,,,0.01,meteohub,2013-03-19 20:52:00,
2013-03-19 16:57:00,56.8,36.3,29.75,NW,319,2.0,9.0,46,0.00,,,0.01,meteohub,2013-03-19 20:57:00,
2013-03-19 17:02:00,56.8,36.9,29.75,NNW,338,2.0,9.0,47,0.00,,,0.01,meteohub,2013-03-19 21:02:00,
2013-03-19 17:07:00,56.7,33.3,29.75,NNW,335,4.0,6.0,41,0.00,,,0.01,meteohub,2013-03-19 21:07:00,
2013-03-19 17:12:00,56.5,29.8,29.75,West,270,6.0,6.0,36,0.00,,,0.01,meteohub,2013-03-19 21:12:00,
2013-03-19 17:17:00,56.3,30.4,29.75,North,355,4.0,10.0,37,0.00,,,0.01,meteohub,2013-03-19 21:17:00,
2013-03-19 17:22:00,56.5,29.1,29.75,NW,308,2.0,10.0,35,0.00,,,0.01,meteohub,2013-03-19 21:22:00,
2013-03-19 17:27:00,56.5,29.1,29.75,NW,319,4.0,14.0,35,0.00,,,0.01,meteohub,2013-03-19 21:27:00,
2013-03-19 17:32:00,56.1,28.8,29.75,South,171,3.0,14.0,35,0.00,,,0.01,meteohub,2013-03-19 21:32:00,
2013-03-19 17:37:00,55.9,27.3,29.75,SW,227,2.0,14.0,33,0.00,,,0.01,meteohub,2013-03-19 21:37:00,
2013-03-19 17:42:00,55.9,25.7,29.76,WNW,293,4.0,8.0,31,0.00,,,0.01,meteohub,2013-03-19 21:42:00,
2013-03-19 17:47:00,56.1,25.2,29.76,WNW,300,1.0,15.0,30,0.00,,,0.01,meteohub,2013-03-19 21:47:00,
2013-03-19 17:53:00,56.1,26.6,29.76,NW,320,3.0,15.0,32,0.00,,,0.01,meteohub,2013-03-19 21:53:00,
2013-03-19 17:58:00,56.1,25.9,29.76,WNW,301,6.0,10.0,31,0.00,,,0.01,meteohub,2013-03-19 21:58:00,
2013-03-19 18:03:00,56.1,20.8,29.76,West,269,10.0,12.0,25,0.00,,,0.01,meteohub,2013-03-19 22:03:00,
2013-03-19 18:08:00,56.1,19.8,29.76,NNW,332,11.0,12.0,24,0.00,,,0.01,meteohub,2013-03-19 22:08:00,
2013-03-19 18:13:00,56.1,18.9,29.76,NW,322,6.0,17.0,23,0.00,,,0.01,meteohub,2013-03-19 22:13:00,
2013-03-19 18:18:00,55.8,18.5,29.77,West,267,2.0,17.0,23,0.00,,,0.01,meteohub,2013-03-19 22:18:00,
2013-03-19 18:23:00,55.6,18.3,29.77,West,272,4.0,16.0,23,0.00,,,0.01,meteohub,2013-03-19 22:23:00,
2013-03-19 18:28:00,55.2,18.1,29.77,NW,316,6.0,11.0,23,0.00,,,0.01,meteohub,2013-03-19 22:28:00,
2013-03-19 18:33:00,55.0,15.8,29.78,NW,321,3.0,12.0,21,0.00,,,0.01,meteohub,2013-03-19 22:33:00,
2013-03-19 18:38:00,55.0,14.7,29.78,NW,305,3.0,12.0,20,0.00,,,0.01,meteohub,2013-03-19 22:38:00,
2013-03-19 18:43:00,55.0,15.8,29.78,SW,233,6.0,15.0,21,0.00,,,0.01,meteohub,2013-03-19 22:43:00,
2013-03-19 18:48:00,54.9,13.3,29.79,WNW,303,6.0,15.0,19,0.00,,,0.01,meteohub,2013-03-19 22:48:00,
2013-03-19 18:53:00,54.7,15.4,29.79,WNW,288,1.0,15.0,21,0.00,,,0.01,meteohub,2013-03-19 22:53:00,
2013-03-19 18:58:00,54.1,15.1,29.80,WNW,299,4.0,15.0,21,0.00,,,0.01,meteohub,2013-03-19 22:58:00,
2013-03-19 19:03:00,54.0,16.0,29.80,WNW,293,2.0,13.0,22,0.00,,,0.01,meteohub,2013-03-19 23:03:00,
2013-03-19 19:08:00,53.4,17.6,29.81,WNW,300,2.0,15.0,24,0.00,,,0.01,meteohub,2013-03-19 23:08:00,
2013-03-19 19:13:00,53.1,16.2,29.81,North,351,11.0,15.0,23,0.00,,,0.01,meteohub,2013-03-19 23:13:00,
2013-03-19 19:18:00,52.7,16.0,29.82,SSW,205,4.0,15.0,23,0.00,,,0.01,meteohub,2013-03-19 23:18:00,
2013-03-19 19:23:00,52.3,15.6,29.82,WNW,294,8.0,11.0,23,0.00,,,0.01,meteohub,2013-03-19 23:23:00,
2013-03-19 19:28:00,52.2,14.4,29.82,NW,322,8.0,11.0,22,0.00,,,0.01,meteohub,2013-03-19 23:28:00,
2013-03-19 19:33:00,52.0,15.3,29.82,West,267,3.0,11.0,23,0.00,,,0.01,meteohub,2013-03-19 23:33:00,
2013-03-19 19:38:00,51.4,14.9,29.83,NW,312,4.0,11.0,23,0.00,,,0.01,meteohub,2013-03-19 23:38:00,
2013-03-19 19:43:00,51.3,14.7,29.83,WNW,287,3.0,11.0,23,0.00,,,0.01,meteohub,2013-03-19 23:43:00,
2013-03-19 19:48:00,51.3,14.7,29.83,NW,324,4.0,10.0,23,0.00,,,0.01,meteohub,2013-03-19 23:48:00,
2013-03-19 19:53:00,50.7,14.2,29.83,NW,308,2.0,10.0,23,0.00,,,0.01,meteohub,2013-03-19 23:53:00,
2013-03-19 19:58:00,50.5,13.1,29.83,West,281,2.0,9.0,22,0.00,,,0.01,meteohub,2013-03-19 23:58:00,
2013-03-19 20:03:00,50.4,14.0,29.84,NW,324,4.0,12.0,23,0.00,,,0.01,meteohub,2013-03-20 00:03:00,
2013-03-19 20:08:00,50.4,11.8,29.83,NNE,17,2.0,12.0,21,0.00,,,0.01,meteohub,2013-03-20 00:08:00,
2013-03-19 20:13:00,50.2,12.7,29.84,NW,326,2.0,13.0,22,0.00,,,0.01,meteohub,2013-03-20 00:13:00,
2013-03-19 20:18:00,49.8,12.6,29.84,NW,321,2.0,13.0,22,0.00,,,0.01,meteohub,2013-03-20 00:18:00,
2013-03-19 20:23:00,49.6,11.3,29.85,North,351,6.0,13.0,21,0.00,,,0.01,meteohub,2013-03-20 00:23:00,
2013-03-19 20:28:00,49.8,12.6,29.85,NW,317,1.0,11.0,22,0.00,,,0.01,meteohub,2013-03-20 00:28:00,
2013-03-19 20:34:00,49.6,12.4,29.85,WNW,294,3.0,11.0,22,0.00,,,0.01,meteohub,2013-03-20 00:34:00,
2013-03-19 20:39:00,49.6,12.4,29.86,NNW,330,1.0,13.0,22,0.00,,,0.01,meteohub,2013-03-20 00:39:00,
2013-03-19 20:44:00,49.3,10.9,29.86,NW,313,4.0,13.0,21,0.00,,,0.01,meteohub,2013-03-20 00:44:00,
2013-03-19 20:49:00,49.3,12.0,29.86,NNW,333,3.0,13.0,22,0.00,,,0.01,meteohub,2013-03-20 00:49:00,
2013-03-19 20:54:00,48.9,10.8,29.86,NW,308,4.0,12.0,21,0.00,,,0.01,meteohub,2013-03-20 00:54:00,
2013-03-19 20:59:00,48.7,11.7,29.86,NW,311,2.0,8.0,22,0.00,,,0.01,meteohub,2013-03-20 00:59:00,
2013-03-19 21:04:00,48.7,12.6,29.87,NW,322,4.0,13.0,23,0.00,,,0.01,meteohub,2013-03-20 01:04:00,
2013-03-19 21:09:00,48.4,11.3,29.87,WNW,288,7.0,13.0,22,0.00,,,0.01,meteohub,2013-03-20 01:09:00,
2013-03-19 21:14:00,48.6,11.5,29.87,NW,312,5.0,13.0,22,0.00,,,0.01,meteohub,2013-03-20 01:14:00,
2013-03-19 21:19:00,48.4,11.3,29.87,North,349,2.0,11.0,22,0.00,,,0.01,meteohub,2013-03-20 01:19:00,
2013-03-19 21:24:00,48.4,12.2,29.88,WNW,301,2.0,11.0,23,0.00,,,0.01,meteohub,2013-03-20 01:24:00,
2013-03-19 21:29:00,48.0,12.0,29.88,WNW,298,3.0,13.0,23,0.00,,,0.01,meteohub,2013-03-20 01:29:00,
2013-03-19 21:34:00,47.8,11.8,29.88,NW,306,3.0,13.0,23,0.00,,,0.01,meteohub,2013-03-20 01:34:00,
2013-03-19 21:39:00,47.7,11.7,29.88,NW,321,5.0,10.0,23,0.00,,,0.01,meteohub,2013-03-20 01:39:00,
2013-03-19 21:44:00,47.7,12.6,29.88,WNW,292,3.0,10.0,24,0.00,,,0.01,meteohub,2013-03-20 01:44:00,
2013-03-19 21:49:00,47.5,12.6,29.88,West,275,3.0,11.0,24,0.00,,,0.01,meteohub,2013-03-20 01:49:00,
2013-03-19 21:54:00,47.1,12.2,29.88,WNW,302,2.0,11.0,24,0.00,,,0.01,meteohub,2013-03-20 01:54:00,
2013-03-19 21:59:00,46.9,11.1,29.88,WNW,282,5.0,8.0,23,0.00,,,0.01,meteohub,2013-03-20 01:59:00,
2013-03-19 22:04:00,47.1,13.1,29.89,WNW,302,1.0,10.0,25,0.00,,,0.01,meteohub,2013-03-20 02:04:00,
2013-03-19 22:09:00,46.8,12.7,29.88,NNE,13,2.0,10.0,25,0.00,,,0.01,meteohub,2013-03-20 02:09:00,
2013-03-19 22:14:00,46.9,12.9,29.89,NW,308,3.0,10.0,25,0.00,,,0.01,meteohub,2013-03-20 02:14:00,
2013-03-19 22:19:00,46.8,12.7,29.90,NW,304,2.0,11.0,25,0.00,,,0.01,meteohub,2013-03-20 02:19:00,
2013-03-19 22:24:00,46.6,14.4,29.90,NW,314,4.0,11.0,27,0.00,,,0.01,meteohub,2013-03-20 02:24:00,
2013-03-19 22:29:00,46.2,13.3,29.90,WNW,293,1.0,11.0,26,0.00,,,0.01,meteohub,2013-03-20 02:29:00,
2013-03-19 22:34:00,46.0,13.1,29.90,WNW,289,2.0,7.0,26,0.00,,,0.01,meteohub,2013-03-20 02:34:00,
2013-03-19 22:39:00,45.9,14.5,29.91,NNW,334,2.0,7.0,28,0.00,,,0.01,meteohub,2013-03-20 02:39:00,
2013-03-19 22:44:00,45.5,14.4,29.91,WNW,295,2.0,5.0,28,0.00,,,0.01,meteohub,2013-03-20 02:44:00,
2013-03-19 22:49:00,45.3,13.3,29.91,NNW,342,3.0,6.0,27,0.00,,,0.01,meteohub,2013-03-20 02:49:00,
2013-03-19 22:54:00,45.5,13.5,29.91,West,265,4.0,7.0,27,0.00,,,0.01,meteohub,2013-03-20 02:54:00,
2013-03-19 22:59:00,45.5,13.5,29.91,West,275,3.0,9.0,27,0.00,,,0.01,meteohub,2013-03-20 02:59:00,
2013-03-19 23:04:00,45.3,13.3,29.91,NNW,327,5.0,9.0,27,0.00,,,0.01,meteohub,2013-03-20 03:04:00,
2013-03-19 23:09:00,45.1,14.0,29.91,NW,311,4.0,9.0,28,0.00,,,0.01,meteohub,2013-03-20 03:09:00,
2013-03-19 23:14:00,45.0,12.9,29.91,WNW,300,0.0,7.0,27,0.00,,,0.01,meteohub,2013-03-20 03:14:00,
2013-03-19 23:19:00,45.0,12.9,29.91,WNW,293,0.0,7.0,27,0.00,,,0.01,meteohub,2013-03-20 03:19:00,
2013-03-19 23:24:00,44.8,13.6,29.91,WSW,242,0.0,10.0,28,0.00,,,0.01,meteohub,2013-03-20 03:24:00,
2013-03-19 23:29:00,44.4,13.3,29.92,NW,325,3.0,10.0,28,0.00,,,0.01,meteohub,2013-03-20 03:29:00,
2013-03-19 23:35:00,44.6,13.5,29.92,WSW,250,2.0,10.0,28,0.00,,,0.01,meteohub,2013-03-20 03:35:00,
2013-03-19 23:40:00,44.6,14.4,29.92,WNW,292,1.0,10.0,29,0.00,,,0.01,meteohub,2013-03-20 03:40:00,
2013-03-19 23:45:00,44.2,13.1,29.92,NW,309,5.0,11.0,28,0.00,,,0.01,meteohub,2013-03-20 03:45:00,
2013-03-19 23:50:00,44.2,12.4,29.92,NW,313,5.0,11.0,27,0.00,,,0.01,meteohub,2013-03-20 03:50:00,
2013-03-19 23:55:00,44.1,12.2,29.93,NW,304,2.0,10.0,27,0.00,,,0.01,meteohub,2013-03-20 03:55:00,